My Profile
  1. Member Settings
  2. My Devices
  3. Sign Out
        More Settings
      Elev 240 ft, 42.851 °N 71.461 °W

      Litchfield, NH

      Summary

      Temperature (°F)MaxAverageMin
      Max Temperature4532.9719
      Avg Temperature39.6924.265.63
      Min Temperature3416.09-11
      Precipitation (in)MaxAverageMinSum
      Precipitation0.120.0100.31
      Dew Point (°F)MaxAverageMin
      Dew Point38.5913.62-6.79
      Wind (mph)MaxAverageMin
      Wind2915.843
      Gust Wind3924.3514
      Sea Level Pressure (in)MaxAverageMin
      Sea Level Pressure30.2429.6429.27

      Daily Observations

      DateTemp High/LowDew Pt High/LowHumidityWindMax WindWind GustPressurePrecip.Condition
      1/1/2025 45 °F / 32 °F 43 °F / 29 °F 94 % 13 mph - 29.28 in 0 in
      1/2/2025 42 °F / 32 °F 28 °F / 11 °F 51 % 26 mph - 29.41 in 0 in
      1/3/2025 36 °F / 27 °F 20 °F / 13 °F 54 % 20 mph - 29.48 in 0 in
      1/4/2025 28 °F / 21 °F 17 °F / 8 °F 57 % 21 mph - 29.49 in 0 in
      1/5/2025 30 °F / 15 °F 18 °F / 6 °F 63 % 20 mph - 29.63 in 0 in
      1/6/2025 24 °F / 14 °F 7 °F / 3 °F 58 % 16 mph - 29.57 in 0 in
      1/7/2025 25 °F / 14 °F 10 °F / 3 °F 58 % 29 mph - 29.43 in 0 in
      1/8/2025 27 °F / 15 °F 9 °F / 1 °F 52 % 26 mph - 29.42 in 0 in
      1/9/2025 25 °F / 15 °F 13 °F / 2 °F 59 % 28 mph - 29.36 in 0 in
      1/10/2025 40 °F / 22 °F 19 °F / 12 °F 61 % 20 mph - 29.56 in 0 in
      1/11/2025 29 °F / 22 °F 26 °F / 17 °F 84 % 16 mph - 29.35 in 0.07 in
      1/12/2025 36 °F / 14 °F 21 °F / 11 °F 73 % 13 mph - 29.68 in 0 in
      1/13/2025 37 °F / 14 °F 25 °F / 11 °F 73 % 12 mph - 29.67 in 0 in
      1/14/2025 32 °F / 22 °F 19 °F / 8 °F 57 % 20 mph - 29.61 in 0 in
      1/15/2025 28 °F / 10 °F 11 °F / 4 °F 60 % 21 mph - 29.76 in 0 in
      1/16/2025 29 °F / 4 °F 15 °F / 0 °F 72 % 3 mph - 29.69 in 0 in
      1/17/2025 35 °F / 9 °F 21 °F / 6 °F 74 % 6 mph - 29.78 in 0 in
      1/18/2025 41 °F / 21 °F 37 °F / 18 °F 90 % 9 mph - 29.64 in 0.05 in
      1/19/2025 41 °F / 24 °F 37 °F / 21 °F 91 % 15 mph - 29.52 in 0 in
      1/20/2025 25 °F / 2 °F 21 °F / -2 °F 71 % 24 mph - 29.75 in 0.01 in
      1/21/2025 19 °F / -7 °F 2 °F / -11 °F 63 % 12 mph - 30.22 in 0 in
      1/22/2025 24 °F / -11 °F 8 °F / -17 °F 61 % 6 mph - 30.24 in 0 in
      1/23/2025 30 °F / 6 °F 11 °F / -1 °F 59 % 7 mph - 30 in 0 in
      1/24/2025 32 °F / 4 °F 14 °F / -1 °F 67 % 16 mph - 29.89 in 0 in
      1/25/2025 31 °F / -1 °F 12 °F / -5 °F 65 % 9 mph - 30.01 in 0 in
      1/26/2025 39 °F / 7 °F 20 °F / -1 °F 60 % 17 mph - 29.81 in 0 in
      1/27/2025 38 °F / 12 °F 14 °F / 8 °F 52 % 12 mph - 29.56 in 0 in
      1/28/2025 36 °F / 21 °F 23 °F / -2 °F 42 % 29 mph - 29.31 in 0 in
      1/29/2025 41 °F / 19 °F 31 °F / 6 °F 77 % 22 mph - 29.26 in 0.12 in
      1/30/2025 26 °F / 16 °F 8 °F / -2 °F 48 % 22 mph - 29.88 in 0 in
      1/31/2025 36 °F / 23 °F 34 °F / 9 °F 87 % 5 mph - 29.6 in 0.06 in
      essentialaccessibility.com
      We recognize our responsibility to use data and technology for good. We may use or share your data with our data vendors. Take control of your data.
      Glossary